Regional Weather Roundup
Issued by NWS

Home | Current Version | Previous Version | Graphics & Text | Print | Product List | Glossary On
Versions: 1 2 3 4 5 6 7 8 9 10 11 12 13 14 15 16 17 18 19 20 21 22 23 24 25 26 27 28
000
ASUS45 KSLC 180410
RWRUT

UTAH REGIONAL WEATHER ROUNDUP
NATIONAL WEATHER SERVICE SALT LAKE CITY UT
1000 PM MDT TUE OCT 17 2017

UTZ001>011-023>025-180500-

NORTHERN UTAH

CITY           SKY/WX    TMP DP  RH WIND       PRES   REMARKS
BRIGHAM CITY   PTCLDY    46  31  56 CALM      30.14R
HILL AFB       MOCLDY    51  30  45 SE7       30.13S
LOGAN          CLEAR     39  27  62 N6        30.14R WCI  35
OGDEN          MOCLDY    50  34  54 S7        30.12S
SALT LAKE CITY MOCLDY    51  34  52 S3        30.13R
TOOELE VALLEY  MOCLDY    39  32  75 SE3       30.15R
WENDOVER       MOCLDY    47  25  42 CALM      30.14R
WEST JORDAN    MOCLDY    47  30  51 CALM      30.15R

$$

UTZ011>015-024>027-180500-

CENTRAL/NORTHEAST UTAH

CITY           SKY/WX    TMP DP  RH WIND       PRES   REMARKS
PROVO AIRPORT  PTCLDY    45  35  68 CALM      30.14
MOAB/CANYONLAN PTCLDY    49  12  22 CALM      30.16R
DELTA          MOCLDY    50  23  34 CALM      30.13R
PRICE          CLEAR     45   6  20 N9        30.23S
RICHFIELD      CLEAR     45  21  39 CALM      30.20R
ROOSEVELT      CLOUDY    37  25  60 W6        30.20S WCI  33
VERNAL         CLOUDY    44  20  38 W3        30.18R

$$

UTZ013>016-019>022-027-180500-

SOUTHERN UTAH

CITY           SKY/WX    TMP DP  RH WIND       PRES   REMARKS
BRYCE CANYON   CLEAR     36  13  38 CALM      30.33S
CEDAR CITY     PTCLDY    55  24  30 SE8       30.20R
MILFORD        MOCLDY    53  20  27 S10       30.15R
ST GEORGE      MOCLDY    68  17  14 CALM      30.06R
HANKSVILLE     PTCLDY    50  12  22 NE3       30.19S
KANAB          CLEAR     52  23  32 NE7       30.22R
BLANDING         N/A     43  11  27 N6        30.31S

$$

REGIONAL REPORTS     COLORADO/ARIZONA

CITY           SKY/WX    TMP DP  RH WIND       PRES   REMARKS
CRAIG, CO      CLOUDY    37  20  50 CALM      30.23R
GRAND JUNCTION CLOUDY    50  15  24 E7        30.19R
RIFLE, CO      CLOUDY    44  18  35 CALM      30.23R
MONTROSE, CO   CLOUDY    43  16  33 S9        30.26S
CORTEZ, CO     CLOUDY    40  11  30 E7        30.26R
COLORADO CITY    N/A     50  21  32 CALM      30.21R
PAGE, AZ       PTCLDY    60  18  19 CALM      30.13R
GRAND CANYON   PTCLDY    41  17  38 NE3       30.30R
KINGMAN, AZ    CLEAR     70  29  21 CALM      30.08S
FLAGSTAFF, AZ  CLEAR     45  22  40 CALM      30.32R

$$

REGIONAL REPORTS    NEVADA/IDAHO/WYOMING

CITY           SKY/WX    TMP DP  RH WIND       PRES   REMARKS
LAS VEGAS, NV  MOCLDY    74  20  13 S6        30.00R
ELY, NY        MOCLDY    42   0  17 S9        30.24R
ELKO, NV       MOCLDY    41  18  39 CALM      30.19R
POCATELLO, ID  PTCLDY    55  22  27 S8        30.10R
BURLEY, ID     CLEAR     44  26  49 W3        30.11R
FORT BRIDGER,    N/A     52   2  13 W9        30.26R
EVANSTON, WY   CLOUDY    55   6  14 CALM      30.24R
ROCK SPRINGS,  CLOUDY    50   3  14 SW10      30.20S
KEMMERER, WY   CLOUDY    45   5  19 N3        30.24S

$$




USA.gov is the U.S. government's official web portal to all federal, state and local government web resources and services.